Regional Weather Roundup
Issued by NWS Little Rock, AR

Home | Current Version | Previous Version | Text Only | Print | Product List | Glossary Off
Versions: 1 2 3 4 5 6 7 8 9 10 11 12 13 14 15 16 17 18 19 20 21 22 23 24 25 26 27 28 29 30 31 32 33 34 35 36 37 38 39 40 41 42 43 44 45 46 47 48 49 50

000
ASUS44 KLZK 230905
RWRLZK

WEATHER ROUNDUP FOR ARKANSAS
NATIONAL WEATHER SERVICE LITTLE ROCK AR
400 AM CDT MON OCT 23 2017

NOTE: "FAIR" INDICATES FEW OR NO CLOUDS BELOW 12,000 FEET WITH NO
SIGNIFICANT WEATHER AND/OR OBSTRUCTIONS TO VISIBILITY.

ARZ001-003-010-029-231000-
NORTHWEST ARKANSAS

CITY           SKY/WX    TMP DP  RH WIND       PRES   REMARKS
FAYETTEVILLE   FOG       38  38 100 S5        30.07F VSB 1/4
FORT SMITH     CLEAR     46  45  96 CALM      30.07F
HARRISON       PTCLDY    49  44  83 W5        30.04F
BENTONVILLE    CLEAR     41  41 100 CALM      30.08
ROGERS         CLEAR     43  42  97 SW3       30.06F
SILOAM SPGS    CLEAR     40  39  97 CALM      30.07F
HIGHFILL       CLEAR     40  39  97 CALM      30.06F
$$

ARZ004-005-016-231000-
NORTH CENTRAL ARKANSAS

CITY           SKY/WX    TMP DP  RH WIND       PRES   REMARKS
BATESVILLE     CLEAR     49  48  97 W5        29.99F
FLIPPIN        MOCLDY    51  48  89 W6        30.02F
MTN HOME       CLOUDY    49  49 100 VRB3      29.99F
$$

ARZ040-041-231000-
WEST CENTRAL ARKANSAS

CITY           SKY/WX    TMP DP  RH WIND       PRES   REMARKS
MENA           CLEAR     45  45 100 CALM      30.08F
$$

ARZ009-017-025-026-028-231000-
NORTHEAST ARKANSAS

CITY           SKY/WX    TMP DP  RH WIND       PRES   REMARKS
JONESBORO        N/A     54  52  93 NW12G17   29.96F
NEWPORT        CLOUDY    52  49  89 NW12      29.98F
WALNUT RIDGE   CLOUDY    52  50  93 NW14      29.97F
BLYTHEVILLE    CLOUDY    54  54 100 NW14      29.94F
$$

ARZ022-023-033-042-044-231000-
CENTRAL ARKANSAS

CITY           SKY/WX    TMP DP  RH WIND       PRES   REMARKS
LITTLE ROCK    CLEAR     49  46  90 W3        30.04S
N LITTLE ROCK    N/A     48  45  89 CALM      30.04F
JACKSONVILLE   PTCLDY    48  47  94 SW7       30.02F
SEARCY         CLOUDY    53  51  93 W3          N/A
HOT SPRINGS    PTCLDY    46  45  96 W5        30.07S
RUSSELLVILLE   CLEAR     43  43 100 CALM      30.05S
CLINTON        CLOUDY    48  46  93 SW5       30.02F
$$

ARZ036-231000-
EAST ARKANSAS

CITY           SKY/WX    TMP DP  RH WIND       PRES   REMARKS
WEST MEMPHIS   CLOUDY    54  53  97 VRB5      29.96S
$$

ARZ050-053-066-070-073-231000-
SOUTHWEST ARKANSAS

CITY           SKY/WX    TMP DP  RH WIND       PRES   REMARKS
ARKADELPHIA    FAIR      41  41 100 SW3       30.08F
CAMDEN         CLEAR     46  45  93 CALM      30.07F
TEXARKANA      CLEAR     48  47  96 SW5       30.09F
EL DORADO      CLEAR     48  48 100 W6        30.08S
DE QUEEN       PTCLDY    40  40 100 CALM      30.08F FOG
$$

ARZ056-057-069-231000-
SOUTHEAST ARKANSAS

CITY           SKY/WX    TMP DP  RH WIND       PRES   REMARKS
PINE BLUFF     CLEAR     51  47  86 NW5       30.03F
STUTTGART      CLOUDY    53  50  89 NW12      30.02S
MONTICELLO     PTCLDY    52  49  89 W6        30.03S

$$





USA.gov is the U.S. government's official web portal to all federal, state and local government web resources and services.